Find NNS 30270-07

NORAD ID: 18361 Int'l Des: 1987-080 Owner: NAVAIR Country: US operational
LEORETROGRADE

現在のビュー

3D地球を読み込み中...

NNS 30270-07について

説明を読み込み中...

次回通過

Passes for default location (London). Set your location on the main map for personalized predictions.

高度履歴

Loading altitude history...

軌道要素

1 18361U 87080A 26150.87464275 .00000109 00000-0 16429-3 0 9994
2 18361 90.3720 85.5078 0105874 99.7799 261.5324 13.44938517898306
Epoch: May 30, 2026 • Age: 20 hours

現在のステータス

高度 1121.9 km
速度 7.28 km/s
衛星直下点 -12.21°S, 52.15°W
打ち上げ日 Sep 16, 1987
運用期間 38.7 years
タイプ other

技術仕様

分類 Payload
質量 66.00 kg
乾燥質量 66.00 kg
総質量 66.00 kg
長さ 0.30 m
直径 0.50 m
スパン 30.00 m
形状 Oct Cyl + 4 Pan + Ant
製造者 GEEW
バスタイプ Transit 5
フェーズステータス In Orbit
所有者/国 NAVAIR/US

Most Searched